Zurück zum Katalog

CZ-6A DEB

AktivSSO
NORAD 56279·DEBRIS·🇨🇳 China

Gestartet Nov 11, 2022 von Taiyuan Satellite Launch Center

Loading…

Nächste Überflüge (nächste 24 Stunden)

TLE

AktuellSource: Space-Track

Epoche: Sep 14, 2026, 10:07 UTC

1 56279U 22151ACX 26257.42166389  .00000506  00000-0  33067-3 0  9994
2 56279  98.9072 253.2268 0070476 129.4651 231.2780 14.05481794178895

Verfolge CZ-6A DEB in Echtzeit mit AllMySat

Download on the App Store